Location: Worth Mountain WMA
(34.9569°N, 81.4819°W)
Time: 15:21:51
(UTC-05:00)

Amateur Radio Satellites - All Passes

Search period start: 29 January 2015 14:51
Search period end: 30 January 2015 14:51
Location: Worth Mountain WMA, 34.9569°N, 81.4819°W

Satellite Date Start Highest point End Downlink Frequencies (MHz)
Time Altitude Azimuth
GONETS M04 29 Jan 15:08:46 15:13:01 14° 279° (W) 15:16:36
Gurwin Techsat 1B 29 Jan 15:09:50 15:14:29 30° 264° (W) 15:19:05 435.225
HORYU 2 29 Jan 15:13:00 15:17:31 81° 258° (WSW) 15:22:02 437.375
O/OREOS (USA 219) 29 Jan 15:18:37 15:21:14 16° 101° (E) 15:24:03 437.305
AUBIESAT-1 29 Jan 15:21:32 15:24:03 20° 101° (E) 15:26:43 437.475
AO-7 29 Jan 15:21:35 15:29:47 64° 69° (ENE) 15:38:02 29.400- 29.500
PHONESAT 2.4 29 Jan 15:30:48 15:33:49 24° 214° (SW) 15:36:48 2401.200-2431.200
RS-15 29 Jan 15:31:31 15:42:40 57° 248° (WSW) 15:54:11 29.354- 29.394
PCSat 29 Jan 15:42:35 15:45:22 14° 255° (WSW) 15:47:49 145.827
JAS-2 29 Jan 15:43:49 15:48:37 32° 71° (ENE) 15:53:15 435.910
STARS 29 Jan 15:58:16 16:02:24 38° 287° (WNW) 16:06:29 437.465
DANDE 29 Jan 15:59:04 16:05:29 79° 264° (W) 16:10:07 436.750
KKS-1 29 Jan 16:05:43 16:09:11 22° 290° (WNW) 16:12:32 437.445
MOZHAYETS 4 29 Jan 16:10:31 16:12:43 14° 91° (E) 16:15:10
JUGNU 29 Jan 16:19:08 16:19:47 10° 165° (SSE) 16:20:34 437.505
M-CUBED/EXP-1 PRIME 29 Jan 16:22:50 16:26:00 40° 290° (WNW) 16:29:15 437.505
CUSAT 1 29 Jan 16:27:43 16:32:45 31° 273° (W) 16:36:36 437.405
CUTE-I 29 Jan 16:38:53 16:41:18 14° 65° (ENE) 16:44:00 437.470
O/OREOS (USA 219) 29 Jan 16:56:10 17:00:22 38° 295° (WNW) 17:04:35 437.305
AUBIESAT-1 29 Jan 16:56:39 16:58:56 17° 293° (WNW) 17:01:10 437.475
AO-7 29 Jan 17:16:29 17:23:09 25° 266° (W) 17:29:30 29.400- 29.500
JAS-2 29 Jan 17:29:09 17:33:49 26° 264° (W) 17:38:07 435.910
MOZHAYETS 4 29 Jan 17:45:53 17:50:16 46° 286° (WNW) 17:54:37
Cubesat XI-IV 29 Jan 17:55:39 18:00:57 79° 76° (ENE) 18:06:19 437.490
PRISM 29 Jan 17:58:04 18:00:57 19° 94° (E) 18:03:58 437.425
CUBESAT XI-V 29 Jan 18:03:11 18:06:07 17° 92° (E) 18:09:15 437.345
JUGNU 29 Jan 18:04:23 18:08:05 17° 174° (S) 18:11:49 437.505
YUBILEINY 29 Jan 18:11:20 18:15:04 14° 81° (E) 18:19:29 435.215
CUTE-I 29 Jan 18:15:35 18:20:52 68° 258° (WSW) 18:26:12 437.470
STRAND 1 29 Jan 18:17:28 18:20:43 17° 92° (E) 18:24:10 437.568
SO-50 29 Jan 18:31:39 18:34:56 18° 47° (NE) 18:38:22 436.795
SRMSAT 29 Jan 18:45:52 18:48:58 14° 170° (S) 18:52:08 437.500
HO-68 29 Jan 18:52:58 18:56:52 16° 60° (ENE) 19:01:09 435.675
PRISM 29 Jan 19:32:55 19:36:32 28° 288° (WNW) 19:40:06 437.425
CUBESAT XI-V 29 Jan 19:39:23 19:43:47 40° 286° (WNW) 19:48:09 437.345
COMPASS 1 29 Jan 19:43:06 19:44:58 13° 69° (ENE) 19:47:03 437.405
JUGNU 29 Jan 19:52:33 19:56:25 18° 184° (S) 20:00:16 437.505
STRAND 1 29 Jan 19:55:16 20:00:13 46° 287° (WNW) 20:05:06 437.568
CANX-2 29 Jan 19:56:38 20:00:23 30° 72° (ENE) 20:04:10 2200.000
CINEMA 3 29 Jan 20:01:53 20:04:19 14° 66° (ENE) 20:07:00 145.822/145.860
YUBILEINY 29 Jan 20:02:10 20:10:51 89° 99° (E) 20:19:37 435.215
GOMX 1 29 Jan 20:05:28 20:10:05 39° 72° (ENE) 20:15:01 467.674
AAUSAT CUBESAT 2 29 Jan 20:07:38 20:10:50 22° 71° (ENE) 20:14:08 437.432
SO-50 29 Jan 20:11:04 20:15:54 56° 244° (WSW) 20:20:41 436.795
BRITE-PL 29 Jan 20:11:54 20:16:48 65° 76° (ENE) 20:22:09 437.365/2234.400
DOVE 4 29 Jan 20:15:48 20:20:18 35° 72° (ENE) 20:25:04 437.250
CUTE 1.7 + AOD 2 29 Jan 20:20:14 20:24:25 53° 75° (ENE) 20:28:37 437.475
Oscar 11 29 Jan 20:24:43 20:27:29 17° 70° (ENE) 20:30:24 145.826/435.025
ISS 29 Jan 20:30:23 20:32:19 15° 129° (SE) 20:34:22 145.825
SRMSAT 29 Jan 20:33:26 20:37:27 19° 179° (S) 20:41:29 437.500
HO-68 29 Jan 20:36:40 20:43:50 85° 255° (WSW) 20:51:02 435.675
SEEDS 29 Jan 20:50:10 20:54:26 78° 258° (WSW) 20:58:42 437.485
UKube-1 29 Jan 20:59:35 21:03:03 25° 71° (ENE) 21:06:38 .
CUBEBUG 2 29 Jan 21:08:45 21:13:08 40° 73° (ENE) 21:17:38 437.445
ZACube-1 29 Jan 21:14:38 21:18:39 31° 72° (ENE) 21:22:47 437.345
HUMSAT D 29 Jan 21:15:21 21:18:00 17° 69° (ENE) 21:20:49 437.325/437.525
COMPASS 1 29 Jan 21:16:18 21:20:22 44° 261° (W) 21:24:25 437.405
DX 1 29 Jan 21:20:14 21:24:22 45° 74° (ENE) 21:28:33 434.975-435.025
FUNcube-1 29 Jan 21:26:08 21:30:26 42° 73° (ENE) 21:34:47 145.935
CANX-2 29 Jan 21:33:18 21:36:23 19° 267° (W) 21:39:22 2200.000
DELFI C3 29 Jan 21:34:29 21:38:35 87° 264° (W) 21:42:41 145.870
CINEMA 3 29 Jan 21:36:12 21:41:01 59° 260° (W) 21:46:00 145.822/145.860
JUGNU 29 Jan 21:42:38 21:44:45 12° 193° (SSW) 21:46:45 437.505
AAUSAT CUBESAT 2 29 Jan 21:42:53 21:46:25 25° 265° (W) 21:49:51 437.432
GOMX 1 29 Jan 21:44:31 21:48:23 21° 269° (W) 21:52:17 467.674
AISAT 29 Jan 21:47:22 21:51:17 32° 72° (ENE) 21:55:18 437.250
UWE-3 29 Jan 21:47:26 21:52:07 89° 269° (W) 21:56:51 435.000/436.395/437.385
ESTCUBE 1 29 Jan 21:53:18 21:55:53 16° 68° (ENE) 21:58:38 437.505/2401.250
BRITE-PL 29 Jan 21:53:49 21:56:01 12° 274° (W) 21:57:55 437.365/2234.400
DOVE 4 29 Jan 21:54:09 21:58:10 23° 268° (W) 22:02:12 437.250
ANTELSAT 29 Jan 21:55:29 21:56:51 12° 89° (E) 21:58:29 437.575/2403.000
Oscar 11 29 Jan 21:59:26 22:03:26 35° 263° (W) 22:07:25 145.826/435.025
CUTE 1.7 + AOD 2 29 Jan 21:59:46 22:00:45 10° 271° (W) 22:01:25 437.475
TIGRISAT 29 Jan 22:02:14 22:04:24 14° 91° (E) 22:06:47 435.000
YUBILEINY 29 Jan 22:03:56 22:09:06 16° 297° (WNW) 22:13:41 435.215
ISS 29 Jan 22:05:29 22:08:35 39° 322° (NW) 22:11:42 145.825
VELOX 1 29 Jan 22:14:50 22:19:13 66° 76° (ENE) 22:23:39 145.980
50 SAT 29 Jan 22:20:41 22:24:47 72° 78° (ENE) 22:28:56 437.505
QB50P2 29 Jan 22:21:08 22:23:10 14° 91° (E) 22:25:27 145.880/145.840
CUBEBUG 1 29 Jan 22:22:18 22:26:01 29° 72° (ENE) 22:29:51 437.445
SRMSAT 29 Jan 22:22:34 22:25:57 15° 189° (S) 22:29:17 437.500
QB50P1 29 Jan 22:29:40 22:32:26 17° 93° (E) 22:35:20 145.935-145.965
HO-68 29 Jan 22:30:09 22:32:40 11° 272° (W) 22:34:33 435.675
UKube-1 29 Jan 22:35:38 22:39:11 24° 265° (W) 22:42:39 .
BUGSAT 1 29 Jan 22:38:42 22:41:21 17° 93° (E) 22:44:11 437.445
TISAT 1 29 Jan 22:43:49 22:44:46 11° 67° (ENE) 22:45:59 437.305
POLYITAN 1 29 Jan 22:44:10 22:47:45 26° 95° (E) 22:51:23 437.675
CUBEBUG 2 29 Jan 22:46:46 22:50:02 18° 268° (W) 22:53:09 437.445
HUMSAT D 29 Jan 22:49:29 22:53:31 37° 262° (W) 22:57:34 437.325/437.525
ZACube-1 29 Jan 22:51:33 22:55:06 21° 267° (W) 22:58:32 437.345
UNISAT 6 29 Jan 22:53:39 22:58:02 60° 100° (E) 23:02:19 437.425
DX 1 29 Jan 22:58:48 23:00:55 13° 269° (W) 23:02:49 434.975-435.025
AIST 1 29 Jan 23:00:55 23:05:16 73° 264° (W) 23:09:38
POPSAT HIP 1 29 Jan 23:03:30 23:07:37 43° 99° (E) 23:11:43 437.405
FUNcube-1 29 Jan 23:04:08 23:07:00 16° 269° (W) 23:09:42 145.935
DUCHIFAT 1 29 Jan 23:05:48 23:09:56 46° 99° (E) 23:14:04 145.980
AISAT 29 Jan 23:24:47 23:28:01 19° 267° (W) 23:31:07 437.250
ESTCUBE 1 29 Jan 23:28:13 23:32:28 41° 262° (W) 23:36:43 437.505/2401.250
ANTELSAT 29 Jan 23:29:47 23:34:05 49° 286° (WNW) 23:38:15 437.575/2403.000
TIGRISAT 29 Jan 23:37:17 23:41:28 41° 287° (WNW) 23:45:31 435.000
NANOSAT C BR1 29 Jan 23:40:26 23:44:42 65° 285° (WNW) 23:48:56 145.865
SPROUT 29 Jan 23:40:55 23:45:06 54° 75° (ENE) 23:49:21 437.525
QB50P2 29 Jan 23:55:17 23:59:22 41° 286° (WNW) 00:03:23 145.880/145.840
CUBEBUG 1 29 Jan 23:59:14 00:02:29 20° 267° (W) 00:05:36 437.445
QB50P1 30 Jan 00:04:34 00:08:27 33° 288° (WNW) 00:12:16 145.935-145.965
GONETS M04 30 Jan 00:11:41 00:17:30 21° 84° (E) 00:23:45
BUGSAT 1 30 Jan 00:13:06 00:17:00 34° 287° (WNW) 00:20:51 437.445
TISAT 1 30 Jan 00:16:01 00:20:10 55° 260° (W) 00:24:21 437.305
POLYITAN 1 30 Jan 00:20:12 00:23:36 22° 290° (WNW) 00:26:53 437.675
UNISAT 6 30 Jan 00:33:14 00:34:21 11° 294° (WNW) 00:35:11 437.425
POPSAT HIP 1 30 Jan 00:40:52 00:43:11 14° 292° (WNW) 00:45:18 437.405
DUCHIFAT 1 30 Jan 00:43:19 00:45:27 13° 292° (WNW) 00:47:21 145.980
SWISSCUBE 30 Jan 00:57:30 01:02:10 60° 74° (ENE) 01:06:52 437.505
BEESAT 30 Jan 01:13:05 01:17:50 81° 76° (ENE) 01:22:37 436.000
ITUPSAT 1 30 Jan 01:17:23 01:22:09 88° 71° (ENE) 01:26:56 437.325
SPROUT 30 Jan 01:20:42 01:21:37 10° 271° (W) 01:22:14 437.525
KKS-1 30 Jan 01:24:39 01:27:44 19° 69° (ENE) 01:30:57 437.445
O/OREOS (USA 219) 30 Jan 01:30:42 01:34:00 20° 60° (ENE) 01:37:24 437.305
BEESAT 2 30 Jan 01:38:11 01:41:43 29° 113° (ESE) 01:45:23 435.950
AIST 2 30 Jan 01:39:53 01:41:14 12° 109° (ESE) 01:42:52 435.215
Gurwin Techsat 1B 30 Jan 01:50:45 01:53:27 15° 90° (E) 01:56:27 435.225
BEESAT 3 30 Jan 01:51:10 01:55:05 49° 115° (ESE) 01:59:06 437.485
GONETS M04 30 Jan 02:04:54 02:13:39 70° 279° (W) 02:22:21
AUBIESAT-1 30 Jan 02:07:41 02:10:34 20° 68° (ENE) 02:13:23 437.475
Oscar 19 30 Jan 02:09:40 02:14:50 76° 284° (WNW) 02:19:56 437.125/150
ITAMSAT 1 30 Jan 02:27:19 02:32:24 52° 100° (E) 02:37:31 435.822/435.867
SWISSCUBE 30 Jan 02:38:49 02:40:31 11° 270° (W) 02:41:52 437.505
STARS 30 Jan 02:51:36 02:56:01 67° 259° (WSW) 03:00:28 437.465
PCSat 30 Jan 02:55:33 02:57:40 13° 105° (ESE) 03:00:08 145.827
KKS-1 30 Jan 03:00:05 03:04:11 34° 263° (W) 03:08:15 437.445
HORYU 2 30 Jan 03:08:29 03:12:06 25° 96° (E) 03:15:46 437.375
M-CUBED/EXP-1 PRIME 30 Jan 03:08:41 03:12:46 58° 254° (WSW) 03:16:32 437.505
O/OREOS (USA 219) 30 Jan 03:09:21 03:13:33 35° 256° (WSW) 03:17:41 437.305
AIST 2 30 Jan 03:15:18 03:19:27 53° 302° (WNW) 03:23:39 435.215
BEESAT 2 30 Jan 03:16:44 03:20:00 21° 309° (NW) 03:23:12 435.950
DANDE 30 Jan 03:21:47 03:28:08 27° 86° (E) 03:35:10 436.750
AO-7 30 Jan 03:28:05 03:34:23 25° 94° (E) 03:40:59 29.400- 29.500
Gurwin Techsat 1B 30 Jan 03:28:39 03:33:53 58° 286° (WNW) 03:39:04 435.225
BEESAT 3 30 Jan 03:31:12 03:33:34 14° 313° (NW) 03:35:48 437.485
RS-15 30 Jan 03:40:29 03:49:24 32° 107° (ESE) 03:58:40 29.354- 29.394
AUBIESAT-1 30 Jan 03:41:59 03:45:25 25° 258° (WSW) 03:48:33 437.475
CUSAT 1 30 Jan 03:45:24 03:52:58 47° 91° (E) 04:00:59 437.405
ITAMSAT 1 30 Jan 04:08:09 04:11:33 17° 294° (WNW) 04:14:43 435.822/435.867
GONETS M04 30 Jan 04:10:22 04:12:30 11° 301° (WNW) 04:13:48
PCSat 30 Jan 04:35:12 04:40:34 69° 298° (WNW) 04:46:00 145.827
ISS 30 Jan 04:35:46 04:38:58 47° 39° (NE) 04:42:09 145.825
JAS-2 30 Jan 04:38:48 04:44:18 42° 99° (E) 04:50:31 435.910
MOZHAYETS 4 30 Jan 04:44:13 04:48:49 74° 259° (W) 04:53:25
HORYU 2 30 Jan 04:45:04 04:48:44 25° 289° (WNW) 04:52:16 437.375
DANDE 30 Jan 05:03:03 05:11:04 63° 282° (WNW) 05:19:41 436.750
CUBESAT XI-V 30 Jan 05:05:19 05:06:47 12° 67° (ENE) 05:08:32 437.345
AO-7 30 Jan 05:19:33 05:27:47 63° 291° (WNW) 05:35:53 29.400- 29.500
CUSAT 1 30 Jan 05:28:42 05:36:11 37° 288° (WNW) 05:43:45 437.405
STRAND 1 30 Jan 05:30:32 05:33:54 19° 67° (ENE) 05:37:28 437.568
RS-15 30 Jan 05:50:22 06:01:11 62° 305° (NW) 06:12:02 29.354- 29.394
ISS 30 Jan 06:13:33 06:15:11 13° 232° (SW) 06:16:41 145.825
Cubesat XI-IV 30 Jan 06:16:32 06:21:36 42° 98° (E) 06:26:41 437.490
YUBILEINY 30 Jan 06:16:49 06:24:46 38° 74° (ENE) 06:32:51 435.215
PRISM 30 Jan 06:19:43 06:23:47 60° 259° (W) 06:27:51 437.425
JAS-2 30 Jan 06:24:32 06:29:18 26° 290° (WNW) 06:34:21 435.910
CUTE-I 30 Jan 06:36:04 06:41:25 65° 101° (E) 06:46:45 437.470
CUBESAT XI-V 30 Jan 06:39:15 06:43:48 60° 260° (W) 06:48:22 437.345
DANDE 30 Jan 06:53:18 06:56:30 12° 302° (WNW) 06:59:00 436.750
STRAND 1 30 Jan 07:07:57 07:12:49 45° 261° (W) 07:17:41 437.568
VERMONT LUNAR 30 Jan 07:15:31 07:18:20 24° 146° (SE) 07:21:12 437.305
AO-7 30 Jan 07:16:22 07:19:10 12° 308° (NW) 07:21:22 29.400- 29.500
Cubesat XI-IV 30 Jan 07:57:21 08:01:28 22° 292° (WNW) 08:05:24 437.490
HO-68 30 Jan 08:09:19 08:14:26 22° 93° (E) 08:19:50 435.675
RS-15 30 Jan 08:09:21 08:16:34 18° 333° (NNW) 08:23:29 29.354- 29.394
CUTE 1.7 + AOD 2 30 Jan 08:11:19 08:12:38 11° 90° (E) 08:14:12 437.475
GOMX 1 30 Jan 08:12:21 08:15:29 16° 89° (E) 08:18:45 467.674
YUBILEINY 30 Jan 08:13:34 08:21:39 41° 271° (W) 08:29:36 435.215
CUTE-I 30 Jan 08:18:02 08:21:01 15° 295° (WNW) 08:23:43 437.470
PHONESAT 2.4 30 Jan 08:19:35 08:22:59 42° 150° (SSE) 08:26:26 2401.200-2431.200
DOVE 4 30 Jan 08:20:43 08:22:47 13° 88° (E) 08:25:07 437.250
BRITE-PL 30 Jan 08:20:46 08:25:39 31° 94° (E) 08:30:23 437.365/2234.400
SEEDS 30 Jan 08:38:57 08:42:09 22° 94° (E) 08:45:25 437.485
VERMONT LUNAR 30 Jan 08:52:48 08:56:16 66° 339° (NNW) 08:59:45 437.305
TIGRISAT 30 Jan 09:00:15 09:00:28 10° 66° (ENE) 09:01:00 435.000
COMPASS 1 30 Jan 09:03:33 09:07:21 35° 97° (E) 09:11:10 437.405
CUBEBUG 2 30 Jan 09:07:03 09:07:19 10° 88° (E) 09:07:55 437.445
DELFI C3 30 Jan 09:19:20 09:21:50 16° 93° (E) 09:24:29 145.870
CANX-2 30 Jan 09:20:41 09:24:56 84° 280° (W) 09:29:07 2200.000
AAUSAT CUBESAT 2 30 Jan 09:28:48 09:32:56 64° 100° (E) 09:37:01 437.432
CINEMA 3 30 Jan 09:35:14 09:39:49 44° 97° (E) 09:44:11 145.822/145.860
POLYITAN 1 30 Jan 09:35:41 09:37:52 14° 68° (ENE) 09:40:15 437.675
UWE-3 30 Jan 09:42:02 09:45:33 23° 94° (E) 09:49:04 435.000/436.395/437.385
CUTE 1.7 + AOD 2 30 Jan 09:44:50 09:48:54 46° 285° (WNW) 09:52:55 437.475
GOMX 1 30 Jan 09:48:47 09:54:02 52° 286° (WNW) 09:58:57 467.674
UNISAT 6 30 Jan 09:49:16 09:53:34 37° 73° (ENE) 09:57:56 437.425
Oscar 11 30 Jan 09:49:49 09:54:01 51° 99° (E) 09:58:13 145.826/435.025
POPSAT HIP 1 30 Jan 09:53:56 09:57:13 22° 70° (ENE) 10:00:37 437.405
HO-68 30 Jan 09:55:37 10:02:39 61° 289° (WNW) 10:09:39 435.675
DUCHIFAT 1 30 Jan 09:55:53 09:59:13 23° 71° (ENE) 10:02:40 145.980
DOVE 4 30 Jan 09:56:02 10:01:07 60° 285° (WNW) 10:05:54 437.250
PHONESAT 2.4 30 Jan 09:58:03 10:01:33 47° 345° (NNW) 10:05:05 2401.200-2431.200
BRITE-PL 30 Jan 09:59:09 10:04:06 31° 290° (WNW) 10:08:45 437.365/2234.400
50 SAT 30 Jan 10:05:41 10:07:09 12° 91° (E) 10:08:50 437.505
VELOX 1 30 Jan 10:10:11 10:12:59 17° 93° (E) 10:15:57 145.980
SEEDS 30 Jan 10:14:30 10:17:57 25° 288° (WNW) 10:21:19 437.485
BEESAT 3 30 Jan 10:15:06 10:17:06 13° 47° (NE) 10:19:13 437.485
SO-50 30 Jan 10:22:18 10:26:50 77° 300° (WNW) 10:31:31 436.795
ANTELSAT 30 Jan 10:24:52 10:29:36 87° 256° (WSW) 10:34:20 437.575/2403.000
UKube-1 30 Jan 10:25:42 10:30:04 73° 103° (ESE) 10:34:24 .
NANOSAT C BR1 30 Jan 10:29:46 10:33:57 60° 76° (ENE) 10:38:12 145.865
VERMONT LUNAR 30 Jan 10:31:32 10:34:43 31° 357° (N) 10:37:54 437.305
RS-15 30 Jan 10:31:36 10:35:32 12° 10° (N) 10:39:46 29.354- 29.394
TIGRISAT 30 Jan 10:31:59 10:36:42 74° 260° (W) 10:41:25 435.000
HUMSAT D 30 Jan 10:37:16 10:41:18 44° 98° (E) 10:45:17 437.325/437.525
CUBEBUG 2 30 Jan 10:40:05 10:44:34 58° 285° (WNW) 10:48:50 437.445
COMPASS 1 30 Jan 10:40:16 10:42:50 16° 291° (WNW) 10:45:13 437.405
ZACube-1 30 Jan 10:42:46 10:47:11 79° 283° (WNW) 10:51:27 437.345
QB50P2 30 Jan 10:44:38 10:48:55 87° 257° (WSW) 10:53:15 145.880/145.840
DX 1 30 Jan 10:47:53 10:52:13 58° 285° (WNW) 10:56:32 434.975-435.025
DELFI C3 30 Jan 10:53:36 10:57:11 30° 287° (WNW) 11:00:42 145.870
QB50P1 30 Jan 10:53:38 10:57:52 68° 259° (W) 11:02:09 145.935-145.965
FUNcube-1 30 Jan 10:54:25 10:58:45 58° 284° (WNW) 11:02:56 145.935
BUGSAT 1 30 Jan 10:59:37 11:03:42 77° 259° (W) 11:07:52 437.445
POLYITAN 1 30 Jan 11:09:23 11:13:28 43° 261° (W) 11:17:36 437.675
CINEMA 3 30 Jan 11:13:38 11:16:39 16° 293° (WNW) 11:19:24 145.822/145.860
AISAT 30 Jan 11:17:38 11:22:09 76° 284° (WNW) 11:26:38 437.250
UWE-3 30 Jan 11:18:22 11:22:05 26° 289° (WNW) 11:25:38 435.000/436.395/437.385
ESTCUBE 1 30 Jan 11:24:05 11:28:30 51° 100° (E) 11:32:56 437.505/2401.250
AIST 1 30 Jan 11:26:57 11:31:11 78° 96° (E) 11:35:27
UNISAT 6 30 Jan 11:27:10 11:30:31 19° 267° (W) 11:33:43 437.425
Oscar 11 30 Jan 11:28:06 11:29:49 12° 293° (WNW) 11:31:17 145.826/435.025
POPSAT HIP 1 30 Jan 11:29:25 11:33:01 26° 265° (W) 11:36:36 437.405
DUCHIFAT 1 30 Jan 11:31:28 11:35:00 24° 265° (W) 11:38:29 145.980
SPROUT 30 Jan 11:33:04 11:34:47 12° 90° (E) 11:36:46 437.525
PHONESAT 2.4 30 Jan 11:37:15 11:40:33 32° 2° (N) 11:43:53 2401.200-2431.200
BEESAT 2 30 Jan 11:38:31 11:42:43 89° 60° (ENE) 11:46:49 435.950
50 SAT 30 Jan 11:38:44 11:42:33 40° 286° (WNW) 11:46:17 437.505
AIST 2 30 Jan 11:40:27 11:44:24 36° 55° (NE) 11:48:18 435.215
VELOX 1 30 Jan 11:45:35 11:49:45 37° 288° (WNW) 11:53:51 145.980
Oscar 19 30 Jan 11:47:43 11:49:27 12° 64° (ENE) 11:51:30 437.125/150
CUBEBUG 1 30 Jan 11:50:07 11:54:35 84° 285° (WNW) 11:59:03 437.445
BEESAT 3 30 Jan 11:51:34 11:55:38 54° 244° (WSW) 11:59:36 437.485
TISAT 1 30 Jan 12:04:34 12:08:17 29° 96° (E) 12:12:03 437.305
VERMONT LUNAR 30 Jan 12:09:53 12:13:16 43° 14° (NNE) 12:16:38 437.305
HUMSAT D 30 Jan 12:14:42 12:16:45 13° 292° (WNW) 12:18:34 437.325/437.525
GONETS M04 30 Jan 12:19:22 12:27:45 51° 78° (ENE) 12:36:10
RS-15 30 Jan 12:43:28 12:53:11 33° 42° (NE) 13:03:33 29.354- 29.394
SWISSCUBE 30 Jan 13:02:10 13:05:37 20° 94° (E) 13:09:12 437.505
ESTCUBE 1 30 Jan 13:02:45 13:05:01 13° 293° (WNW) 13:07:03 437.505/2401.250
SPROUT 30 Jan 13:07:02 13:11:13 46° 286° (WNW) 13:15:21 437.525
Gurwin Techsat 1B 30 Jan 13:08:40 13:12:02 18° 67° (ENE) 13:15:37 435.225
PHONESAT 2.4 30 Jan 13:15:53 13:19:30 62° 19° (NNE) 13:23:07 2401.200-2431.200
BEESAT 30 Jan 13:17:18 13:21:18 27° 96° (E) 13:25:22 436.000
AIST 2 30 Jan 13:19:53 13:22:46 17° 250° (WSW) 13:25:28 435.215
ITUPSAT 1 30 Jan 13:21:51 13:26:00 30° 96° (E) 13:30:13 437.325
Oscar 19 30 Jan 13:23:04 13:28:16 74° 259° (W) 13:33:28 437.125/150
PCSat 30 Jan 13:26:30 13:31:42 46° 59° (ENE) 13:36:55 145.827
TISAT 1 30 Jan 13:40:46 13:43:58 20° 290° (WNW) 13:47:02 437.305
ITAMSAT 1 30 Jan 13:42:02 13:47:04 56° 74° (ENE) 13:52:10 435.822/435.867
VERMONT LUNAR 30 Jan 13:48:01 13:51:25 47° 209° (SSW) 13:54:49 437.305
HORYU 2 30 Jan 14:04:43 14:07:29 17° 68° (ENE) 14:10:25 437.375
DANDE 30 Jan 14:12:58 14:14:46 12° 57° (ENE) 14:16:48 436.750
GONETS M04 30 Jan 14:16:58 14:24:15 30° 274° (W) 14:31:15
AO-7 30 Jan 14:23:53 14:30:24 27° 61° (ENE) 14:37:10 29.400- 29.500
CUSAT 1 30 Jan 14:33:35 14:37:42 21° 64° (ENE) 14:41:13 437.405
SWISSCUBE 30 Jan 14:39:14 14:43:36 35° 288° (WNW) 14:47:55 437.505
